CW4214 Peralejos de las Truchas ES current weather conditions

sailwx.info

Wind from 040 at 1 knots gusting 4

Air temperature -0.6° C
Dewpoint -0.8° C

Last reported at 2020-Jan-22 05:57 UTC.
Time now 2020-Jan-22 15:05 UTC

Location: N 40°36' W 001°54'.
View on Google Maps.

See reports from other nearby stations

  
Tides and Currents Weather Stations Pressure Air Temp Water Temp Dewpoint Dewpoint Depression Visibility Wind Speed Wind Dir Waves Ship Positions
date/time (UTC)wind fromknots sea level pressurealtimeterstation pressurevisibilityair tempwater tempwave heightnotes
2020-Jan-22 05:57 040 1 gusting 4 -0.6
2020-Jan-22 05:47 039 1 gusting 4 -0.6
2020-Jan-22 05:37 082 1 gusting 2 -0.6
2020-Jan-22 05:27 009 0 gusting 2 -0.6
2020-Jan-22 05:17 025 1 gusting 4 -0.6
2020-Jan-22 05:07 033 1 gusting 4 -0.6
2020-Jan-22 04:57 017 0 gusting 3 -0.6
2020-Jan-22 04:47 029 1 gusting 3 -0.6
2020-Jan-22 04:37 059 1 gusting 3 -0.6
2020-Jan-22 04:27 059 0 gusting 2 -0.6
2020-Jan-22 04:17 048 1 gusting 5 -0.6
2020-Jan-22 04:07 018 2 gusting 5 -0.6
2020-Jan-22 03:57 052 1 gusting 3 -0.6
2020-Jan-22 03:47 314 0 gusting 3 -0.6
2020-Jan-22 03:37 033 1 gusting 2 -0.6
2020-Jan-22 03:27 352 1 gusting 4 -0.6
2020-Jan-22 03:17 023 1 gusting 2 -0.6
2020-Jan-22 03:07 348 1 gusting 4 -0.6
2020-Jan-22 02:57 020 1 gusting 3 -0.6
2020-Jan-22 02:47 345 -0.6
2020-Jan-22 02:37 355 2 gusting 5 -0.6
2020-Jan-22 02:27 034 1 gusting 3 -0.6
2020-Jan-22 02:17 060 1 gusting 3 -0.6
2020-Jan-22 02:07 056 2 gusting 6 -0.6
2020-Jan-22 01:57 050 1 gusting 4 -0.6
2020-Jan-22 01:47 038 0 gusting 4 -0.6
2020-Jan-22 01:37 029 2 gusting 5 -0.6
2020-Jan-22 01:27 035 1 gusting 4 -0.6
2020-Jan-22 01:17 058 1 gusting 5 -0.6
2020-Jan-22 01:07 039 1 gusting 4 -0.6
2020-Jan-22 00:57 044 0 gusting 5 -0.6
2020-Jan-22 00:47 002 1 gusting 5 -0.6
2020-Jan-22 00:37 043 3 gusting 7 -0.6
2020-Jan-22 00:27 040 2 gusting 2
2020-Jan-22 00:17 044 1 gusting 6 -0.6
2020-Jan-22 00:07 029 1 gusting 5 -0.6
2020-Jan-21 23:57 034 2 gusting 6 -0.6
2020-Jan-21 23:47
2020-Jan-21 23:37 025 2 gusting 5 -0.6
2020-Jan-21 23:27 039 2 gusting 6 -0.6
2020-Jan-21 23:17 048 1 gusting 4 -0.6
2020-Jan-21 23:07 047 -0.6
2020-Jan-21 22:57 049 1 gusting 6 -0.6
2020-Jan-21 22:47 030 0 gusting 5 -0.0
2020-Jan-21 22:37 035 1 gusting 4 -0.0
2020-Jan-21 22:27 010 1 gusting 5 -0.0
2020-Jan-21 22:17 240 -0.0
2020-Jan-21 22:07 022 0 gusting 4 -0.0
2020-Jan-21 21:57 230 -0.0
2020-Jan-21 21:47 165 -0.0
2020-Jan-21 21:37 120 0 gusting 3 -0.0
2020-Jan-21 21:27 261 -0.6
2020-Jan-21 21:17 -0.6
2020-Jan-21 21:11 236 -0.6
2020-Jan-21 21:01 261 1 gusting 4 -0.6
2020-Jan-21 20:51 237 1 gusting 5 -0.6
2020-Jan-21 20:41 224 0 gusting 3 -0.6
2020-Jan-21 20:31 222 0 gusting 2 -0.6
2020-Jan-21 20:21 225 0 gusting 1 -0.6
2020-Jan-21 20:11 264 0 gusting 1 -0.6
2020-Jan-21 19:48 -0.6
2020-Jan-21 19:38 -0.6
2020-Jan-21 19:28 355 -0.6
2020-Jan-21 19:18 -0.6
2020-Jan-21 19:08 003 -0.6
2020-Jan-21 18:58 -0.6
2020-Jan-21 18:48 -0.6
2020-Jan-21 18:38 -0.6
2020-Jan-21 18:28 054 -0.6
2020-Jan-21 18:18 354 -0.6
2020-Jan-21 18:08 -0.6
2020-Jan-21 17:58 -0.6
2020-Jan-21 17:48 -0.6
2020-Jan-21 17:38 -0.6
2020-Jan-21 17:28 -0.6
2020-Jan-21 17:18 -0.6
2020-Jan-21 17:08 004 -1.1
2020-Jan-21 16:58 -1.1
2020-Jan-21 16:48 -1.1
2020-Jan-21 16:38 -1.1
2020-Jan-21 16:28 298 -1.1
2020-Jan-21 16:18 -1.1
2020-Jan-21 16:08 347 -1.1
2020-Jan-21 15:58 -1.1
2020-Jan-21 15:48 345 -1.1
2020-Jan-21 15:38 -1.1
2020-Jan-21 15:28 -1.1
2020-Jan-21 15:18 -1.1
2020-Jan-21 15:08 -1.1
2020-Jan-21 14:58 066 -1.1
2020-Jan-21 14:48 318 -1.1
2020-Jan-21 14:38 064 -1.1
2020-Jan-21 14:28 248 -1.1
2020-Jan-21 14:18 126 -1.1
2020-Jan-21 14:08 081 0 gusting 3 -1.1
2020-Jan-21 13:58 078 0 gusting 3 -1.1
2020-Jan-21 13:48 199 0 gusting 2 -1.1
2020-Jan-21 13:38 058 2 gusting 6 -1.1
2020-Jan-21 13:28 066 3 gusting 12 -1.1
2020-Jan-21 13:18 065 3 gusting 7 -1.1
2020-Jan-21 13:08 064 5 gusting 11 -1.1
2020-Jan-21 12:58 067 8 gusting 13 -1.1
2020-Jan-21 12:48 059 5 gusting 10 -1.1
2020-Jan-21 12:38 065 6 gusting 11 -1.1
2020-Jan-21 12:28 064 9 gusting 19 -1.1
2020-Jan-21 12:18 056 6 gusting 14 -1.1
2020-Jan-21 12:08 062 13 gusting 20 -1.1
2020-Jan-21 11:58 060 9 gusting 19 -1.1
2020-Jan-21 11:48 064 12 gusting 19 -1.1
2020-Jan-21 11:38 068 12 gusting 22 -1.1
2020-Jan-21 11:28 062 10 gusting 16 -1.1
2020-Jan-21 11:18 064 11 gusting 19 -1.7
2020-Jan-21 11:08 062 8 gusting 14 -1.7
2020-Jan-21 10:58 061 7 gusting 16 -1.7
2020-Jan-21 10:48 061 6 gusting 12 -1.7
2020-Jan-21 10:38 061 10 gusting 16 -1.7
2020-Jan-21 10:27 063 12 gusting 19 -2.2
2020-Jan-21 10:18 064 10 gusting 17 -2.2
2020-Jan-21 10:08 062 13 gusting 19 -2.2
2020-Jan-21 09:58 070 9 gusting 16 -2.2
2020-Jan-21 09:48 062 10 gusting 19 -2.2
2020-Jan-21 09:38 068 7 gusting 14 -2.2
2020-Jan-21 09:27 069 5 gusting 7 -2.2
2020-Jan-21 09:16 060 6 gusting 12 -2.2
2020-Jan-21 09:08 061 4 gusting 10 -2.2
2020-Jan-21 08:58 064 4 gusting 10 -2.2
2020-Jan-21 08:48 069 5 gusting 10 -2.2
2020-Jan-21 08:38 064 9 gusting 16 -2.2
2020-Jan-21 08:28 062 6 gusting 14 -2.2
2020-Jan-21 08:17 065 8 gusting 13
2020-Jan-21 08:08 062 12 gusting 17 -2.8
2020-Jan-21 07:58 066 5 gusting 11 -2.8
2020-Jan-21 07:48 062 7 gusting 17 -2.8
2020-Jan-21 07:38 063 8 gusting 14 -2.8
2020-Jan-21 07:28 062 10 gusting 15 -2.8
2020-Jan-21 07:18 069 6 gusting 8 -2.8
2020-Jan-21 07:08 060 8 gusting 19 -2.8
2020-Jan-21 06:58 064 11 gusting 19 -2.8
2020-Jan-21 06:48 -2.8
2020-Jan-21 06:38 -2.8
2020-Jan-21 06:28
2020-Jan-21 06:18 063 12 gusting 20 -2.8
2020-Jan-21 06:08 061 15 gusting 26 -2.8
2020-Jan-21 05:58 061 13 gusting 21 -2.8
2020-Jan-21 05:48 067 10 gusting 17 -2.2
2020-Jan-21 05:38 062 16 gusting 25 -2.2
2020-Jan-21 05:28 061 11 gusting 17 -2.2
2020-Jan-21 05:18 061 12 gusting 21 -2.2
2020-Jan-21 05:08 063 13 gusting 26 -2.2
2020-Jan-21 04:58 060 12 gusting 19 -2.2
2020-Jan-21 04:48 061 12 gusting 18 -2.2
2020-Jan-21 04:38 059 14 gusting 22 -2.2
2020-Jan-21 04:28 062 13 gusting 22 -2.2
2020-Jan-21 04:18 059 14 gusting 24 -2.2
2020-Jan-21 04:08 065 13 gusting 19 -2.2
2020-Jan-21 03:58 061 13 gusting 24 -2.2
2020-Jan-21 03:48 064 15 gusting 23 -2.8
2020-Jan-21 03:38 056 17 gusting 26 -2.8
2020-Jan-21 03:28 062 16 gusting 25 -2.8
2020-Jan-21 03:18 059 13 gusting 23 -2.8
2020-Jan-21 03:08 064 13 gusting 19 -2.8
2020-Jan-21 02:58 064 12 gusting 21 -2.8
2020-Jan-21 02:48 057 13 gusting 20 -2.8
2020-Jan-21 02:38 064 11 gusting 25 -2.8
2020-Jan-21 02:28 062 13 gusting 20 -2.8
2020-Jan-21 02:18 060 15 gusting 24 -2.8
2020-Jan-21 02:08 055 14 gusting 28 -2.8
2020-Jan-21 01:58 057 14 gusting 24 -2.8
2020-Jan-21 01:48 061 13 gusting 21 -2.8
2020-Jan-21 01:38 062 13 gusting 22 -2.8
2020-Jan-21 01:28 061 13 gusting 21 -2.2
2020-Jan-21 01:18 061 18 gusting 29 -2.2
2020-Jan-21 01:08 063 14 gusting 24 -2.2
2020-Jan-21 00:58 056 15 gusting 31 -2.2
2020-Jan-21 00:48 061 18 gusting 25 -2.2
2020-Jan-21 00:38 061 16 gusting 21 -2.2
2020-Jan-21 00:28 060 15 gusting 26 -2.2
2020-Jan-21 00:18 058 13 gusting 20 -2.2
2020-Jan-21 00:08 058 13 gusting 24 -2.2
2020-Jan-20 23:58 056 13 gusting 19 -2.2
2020-Jan-20 23:48 058 13 gusting 18 -2.2
2020-Jan-20 23:38 056 12 gusting 19 -2.2
2020-Jan-20 23:28 058 14 gusting 25 -2.2
2020-Jan-20 23:18 059 15 gusting 25 -2.2
2020-Jan-20 23:08 062 18 gusting 29 -2.2
2020-Jan-20 22:58 056 13 gusting 19 -2.2
2020-Jan-20 22:48 061 14 gusting 26 -2.2
2020-Jan-20 22:38 063 13 gusting 19 -2.2
2020-Jan-20 22:28 063 12 gusting 19 -2.2
2020-Jan-20 22:18 054 13 gusting 18 -2.2
2020-Jan-20 22:08 058 11 gusting 19 -2.2
2020-Jan-20 21:58 056 13 gusting 21 -2.2
2020-Jan-20 21:48 054 13 gusting 21 -2.2
2020-Jan-20 21:38 065 14 gusting 26 -2.2
2020-Jan-20 21:28 059 10 gusting 18 -2.2
2020-Jan-20 21:17 052 7 gusting 15
2020-Jan-20 21:06 049 6 gusting 8
2020-Jan-20 20:58 055 10 gusting 17 -2.2
2020-Jan-20 20:48 061 11 gusting 18 -2.2
2020-Jan-20 20:36 066 15 gusting 19
2020-Jan-20 20:28 063 13 gusting 20 -2.8
2020-Jan-20 20:16 061 12 gusting 15
2020-Jan-20 20:08 056 15 gusting 24 -2.8
2020-Jan-20 19:58 058 16 gusting 23 -2.8
2020-Jan-20 19:48 053 14 gusting 22 -2.8
2020-Jan-20 19:38 055 18 gusting 26 -2.8
2020-Jan-20 19:28 049 15 gusting 25 -3.3
2020-Jan-20 19:18 062 17 gusting 26 -3.3
2020-Jan-20 19:08 059 19 gusting 26 -3.3
2020-Jan-20 18:58 050 13 gusting 24 -3.3
2020-Jan-20 18:48 052 15 gusting 26 -3.3
2020-Jan-20 18:38 061 19 gusting 29 -3.3
2020-Jan-20 18:28 062 12 gusting 24 -3.3
2020-Jan-20 18:18 058 16 gusting 26 -3.3
2020-Jan-20 18:08 061 9 gusting 17 -3.3
2020-Jan-20 17:58 063 11 gusting 18 -3.3
2020-Jan-20 17:48 048 11 gusting 17 -3.3
2020-Jan-20 17:38 052 13 gusting 22 -3.3
2020-Jan-20 17:28 062 13 gusting 23 -3.3
2020-Jan-20 17:17 060 9 gusting 15
2020-Jan-20 17:08 049 8 gusting 17 -3.3
2020-Jan-20 16:58 053 13 gusting 19 -3.3
2020-Jan-20 16:48 046 9 gusting 20 -3.3
2020-Jan-20 16:38 053 14 gusting 23 -3.3
2020-Jan-20 16:28 057 13 gusting 25 -3.3
2020-Jan-20 16:18 060 14 gusting 26 -3.3
2020-Jan-20 16:08 053 15 gusting 24 -3.3
2020-Jan-20 15:58 051 14 gusting 23 -3.3
2020-Jan-20 15:48 046 13 gusting 20 -3.3
2020-Jan-20 15:38 049 12 gusting 23 -3.3
2020-Jan-20 15:28 055 10 gusting 17 -3.3
2020-Jan-20 15:18 054 11 gusting 19 -3.3
2020-Jan-20 15:08 057 13 gusting 23 -3.3